La Grande, OR

9:23 AM PST on December 05, 2019 (GMT -0800)
La Grande-Union County

Weather History for KLGD - September, 2019

Change the Weather History Date:

Saturday, September 28, 2019

  Actual Average Record
Temperature  
Mean Temperature 42 °F -  
Max Temperature 46 °F 70 °F 91 °F (1967)
Min Temperature 36 °F 36 °F 23 °F (1999)
Degree Days  
Heating Degree Days 24    
Moisture  
Dew Point 35 °F    
Average Humidity 77    
Maximum Humidity 87    
Minimum Humidity 61    
Precipitation  
Precipitation 0.04 in - - ()
Sea Level Pressure  
Sea Level Pressure 29.75 in    
Wind  
Wind Speed 12 mph (WNW)    
Max Wind Speed 21 mph    
Max Gust Speed 23 mph    
Visibility 10 miles    
Events Rain    
Averages and records for this station are not official NWS values.
T = Trace of Precipitation, MM = Missing Value Source: NWS Daily Summary

Daily Weather History Graph

Daily Weather History Graph

Search for Another Location

Airport or City:

Astronomy

Sep. 28, 2019 Rise Set
Actual Time 6:46 AM PDT 6:38 PM PDT
Civil Twilight 6:16 AM PDT 7:07 PM PDT
Nautical Twilight 5:42 AM PDT 7:41 PM PDT
Astronomical Twilight 5:07 AM PDT 8:16 PM PDT
Moon 6:24 AM PDT (9/28) 7:08 PM PDT (9/28)
Length of Visible Light 12h 50m
Length of Day
11h 52m
New Moon, 0% of the Moon is Illuminated
Sep 28
New Moon
Oct 5
First Quarter
Oct 13
Full
Oct 21
Last Quarter
Oct 27
New

Hourly Weather History & Observations

Time (PDT) Temp. Windchill Dew Point Humidity Pressure Visibility Wind Dir Wind Speed Gust Speed Precip Events Conditions
12:56 AM 45.0 °F 40.1 °F 35.1 °F 68% 29.73 in 10.0 mi West 9.2 mph - N/A   Mostly Cloudy
1:56 AM 45.0 °F 38.5 °F 36.0 °F 71% 29.73 in 10.0 mi WNW 13.8 mph - N/A   Overcast
2:56 AM 45.0 °F 38.5 °F 36.0 °F 71% 29.72 in 10.0 mi WNW 13.8 mph - N/A   Overcast
3:56 AM 44.1 °F 37.4 °F 36.0 °F 73% 29.72 in 10.0 mi WNW 13.8 mph - N/A   Overcast
4:56 AM 43.0 °F 36.4 °F 35.1 °F 74% 29.72 in 10.0 mi NW 12.7 mph - 0.00 in   Overcast
5:56 AM 41.0 °F 34.7 °F 37.0 °F 86% 29.73 in 10.0 mi NW 10.4 mph - 0.01 in Rain Light Rain
6:56 AM 41.0 °F 35.2 °F 37.0 °F 86% 29.74 in 10.0 mi NW 9.2 mph - 0.02 in Rain Light Rain
7:31 AM 41.0 °F 35.2 °F 37.4 °F 87% 29.74 in 10.0 mi WNW 9.2 mph - 0.00 in Rain Light Rain
7:56 AM 42.1 °F 37.1 °F 37.0 °F 82% 29.75 in 10.0 mi WNW 8.1 mph - 0.00 in Rain Light Rain
8:06 AM 42.8 °F 37.5 °F 37.4 °F 81% 29.74 in 10.0 mi WNW 9.2 mph - 0.00 in Rain Light Rain
8:19 AM 42.8 °F 37.0 °F 37.4 °F 81% 29.73 in 10.0 mi WNW 10.4 mph - 0.00 in   Mostly Cloudy
8:47 AM 42.8 °F 37.0 °F 37.4 °F 81% 29.74 in 10.0 mi WNW 10.4 mph - 0.00 in Rain Light Rain
8:56 AM 42.1 °F 35.7 °F 37.0 °F 82% 29.75 in 10.0 mi NW 11.5 mph - 0.01 in Rain Light Rain
9:56 AM 43.0 °F 35.7 °F 35.1 °F 74% 29.75 in 10.0 mi WNW 15.0 mph - 0.00 in   Mostly Cloudy
10:56 AM 43.0 °F 35.1 °F 34.0 °F 71% 29.75 in 10.0 mi WNW 17.3 mph - N/A   Overcast
11:56 AM 44.1 °F 37.1 °F 33.1 °F 65% 29.75 in 10.0 mi NW 15.0 mph - 0.00 in   Overcast
12:56 PM 45.0 °F 39.7 °F 34.0 °F 65% 29.75 in 10.0 mi NNW 10.4 mph - 0.00 in Rain Light Rain
1:56 PM 46.0 °F - 33.1 °F 61% 29.74 in 10.0 mi North - - 0.00 in   Overcast
2:56 PM 46.0 °F 43.9 °F 34.0 °F 63% 29.73 in 10.0 mi North 4.6 mph - N/A   Overcast
3:56 PM 46.0 °F 41.0 °F 36.0 °F 68% 29.73 in 10.0 mi WNW 10.4 mph - N/A   Scattered Clouds
4:56 PM 46.0 °F 40.2 °F 35.1 °F 66% 29.74 in 10.0 mi NW 12.7 mph - N/A   Overcast
5:56 PM 42.1 °F - 37.9 °F 85% 29.76 in 10.0 mi Calm Calm - 0.00 in   Mostly Cloudy
6:56 PM 42.1 °F 37.1 °F 36.0 °F 79% 29.76 in 10.0 mi NW 8.1 mph - 0.00 in Rain Light Rain
7:56 PM 41.0 °F 32.8 °F 34.0 °F 76% 29.76 in 10.0 mi WNW 16.1 mph - 0.00 in   Overcast
8:56 PM 39.0 °F 29.9 °F 33.1 °F 79% 29.78 in 10.0 mi West 17.3 mph - N/A   Mostly Cloudy
9:29 PM 39.2 °F 31.2 °F 33.8 °F 81% 29.75 in 10.0 mi WNW 13.8 mph - N/A   Mostly Cloudy
9:52 PM 39.2 °F 31.2 °F 33.8 °F 81% 29.76 in 10.0 mi WNW 13.8 mph 21.9 mph N/A   Mostly Cloudy
9:56 PM 39.0 °F 30.3 °F 33.1 °F 79% 29.79 in 10.0 mi WNW 16.1 mph - N/A   Mostly Cloudy
10:06 PM 39.2 °F 29.6 °F 33.8 °F 81% 29.76 in 10.0 mi WNW 19.6 mph - N/A   Mostly Cloudy
10:37 PM 37.4 °F 26.9 °F 33.8 °F 87% 29.76 in 10.0 mi WNW 20.7 mph - N/A   Mostly Cloudy
10:56 PM 37.9 °F 28.5 °F 33.1 °F 83% 29.80 in 10.0 mi NW 17.3 mph 20.7 mph N/A   Mostly Cloudy
11:12 PM 37.4 °F 27.5 °F 33.8 °F 87% 29.77 in 10.0 mi WNW 18.4 mph 23.0 mph N/A   Overcast
11:41 PM 37.4 °F 29.8 °F 32.0 °F 81% 29.77 in 10.0 mi NW 11.5 mph 21.9 mph N/A   Partly Cloudy
11:56 PM 36.0 °F 26.3 °F 32.0 °F 86% 29.81 in 10.0 mi NW 16.1 mph - N/A   Scattered Clouds